ONEWEB-0045 (45151 NORAD) Tracking and Keplerian Element Data

This shows tracking and keplerian element data for the satellite.

Feedback or suggestion? Click here.




ElementValue
Catalog45151
NameONEWEB-0045
Epoch Orbit927
Epoch Day93.94918767
Epoch Year2020
RAAN145.4087
Inclination87.4554
Eccentricity0.0019692
Argument of Perigee98.1368
Mean Anonmoly262.2087
Mean Motion14.76199129
Decay Rate-0.00330192
L11 45151U 20008W 20093.94918767 -.00330192 00000-0 -49986-1 0 9998
L22 45151 87.4554 145.4087 0019692 98.1368 262.2087 14.76199129 9276

Live tracking and technical data element details for ONEWEB-0045 (NORAD 45151). ONEWEB-0045 can be tracked NOW for your location showing map with azimuth and elevation plus other details from your city location.

Track the satellite on the map from your city or location and see movement details for azimuth, elevation, latitude, longitude, range, height, and movement on the map or in text.







IsCatalogInMostPopularTable: catalog: 45151, numindb: 10
Update: records affected: 1



GetName: 45151 ONEWEB-0045

Hit Count: updated at: Fri, 03 Apr 2020 22:18:39 GMT